Change the Weather History Date:

Thursday, August 14, 2014

  Actual Average (KDEN) Record (KDEN)
Temperature  
Mean Temperature 44 °F 73 °F  
Max Temperature 50 °F 88 °F 100 °F (1962)
Min Temperature 37 °F 59 °F 49 °F (1976)
Degree Days  
Heating Degree Days 22 0  
Month to date heating degree days 0  
Since 1 June heating degree days 68  
Since 1 July heating degree days 6  
Cooling Degree Days 0 8  
Month to date cooling degree days 130  
Year to date cooling degree days 574  
Since 1 June cooling degree days 552  
Moisture  
Dew Point 42 °F    
Average Humidity 97    
Maximum Humidity 100    
Minimum Humidity 93    
Precipitation  
Precipitation 0.44 in 0.06 in 0.98 in (1980)
Month to date precipitation 0.95  
Year to date precipitation 10.62  
Snow  
Snow 0.00 in - - ()
Month to date snowfall  
Since 1 June snowfall  
Since 1 July snowfall  
Snow Depth -    
Sea Level Pressure  
Sea Level Pressure 30.63 in    
Wind  
Wind Speed 10 mph (NW)    
Max Wind Speed 26 mph    
Max Gust Speed 36 mph    
Visibility 7 miles    
Events Fog , Rain , Thunderstorm    
T = Trace of Precipitation, MM = Missing Value Source: NWS Daily Summary

Daily Weather History Graph

Daily Weather History Graph

Search for Another Location

Airport or City:

Trip Planner

Search our weather history database for the weather conditions in past years. The results will help you decide how hot, cold, wet, or windy it might be!

Date:

Astronomy

Aug. 14, 2014 Rise Set
Actual Time 6:14 AM MDT 8:00 PM MDT
Civil Twilight 5:45 AM MDT 8:29 PM MDT
Nautical Twilight 5:09 AM MDT 9:04 PM MDT
Astronomical Twilight 4:32 AM MDT 9:41 PM MDT
Moon 10:26 PM MDT (8/14) 10:53 AM MDT (8/14)
Length of Visible Light 14h 44m
Length of Day
13h 46m
Waning Gibbous, 78% of the Moon is Illuminated
Aug 14
Waning Gibbous
Aug 17
Last Quarter
Aug 25
New
Sep 2
First Quarter
Sep 8
Full

Hourly Weather History & Observations

Time (MDT) Temp. Windchill Dew Point Humidity Pressure Visibility Wind Dir Wind Speed Gust Speed Precip Events Conditions
12:15 AM 41.0 °F 35.2 °F 41.0 °F 100% 30.67 in 1.8 mi NW 9.2 mph - N/A   Overcast
12:35 AM 41.0 °F 34.7 °F 39.2 °F 93% 30.66 in 0.2 mi NNW 10.4 mph - N/A Fog Fog
12:55 AM 41.0 °F 37.1 °F 39.2 °F 93% 30.66 in 0.2 mi WNW 5.8 mph - N/A Fog Fog
1:15 AM 42.8 °F 37.0 °F 41.0 °F 93% 30.65 in 10.0 mi West 10.4 mph - N/A   Overcast
1:55 AM 42.8 °F 38.0 °F 41.0 °F 93% 30.64 in 10.0 mi WSW 8.1 mph - N/A   Overcast
2:15 AM 42.8 °F 37.5 °F 41.0 °F 93% 30.63 in 10.0 mi West 9.2 mph - N/A   Overcast
2:34 AM 42.8 °F 37.0 °F 42.8 °F 100% 30.63 in 10.0 mi WSW 10.4 mph - N/A   Overcast
2:55 AM 42.8 °F - 42.8 °F 100% 30.63 in 10.0 mi North - - N/A   Overcast
3:15 AM 42.8 °F 37.5 °F 42.8 °F 100% 30.63 in 10.0 mi WSW 9.2 mph - N/A   Overcast
3:35 AM 42.8 °F 37.5 °F 42.8 °F 100% 30.63 in 10.0 mi WSW 9.2 mph - N/A   Overcast
3:55 AM 42.8 °F 39.3 °F 42.8 °F 100% 30.63 in 10.0 mi West 5.8 mph - N/A   Overcast
4:14 AM 42.8 °F 37.5 °F 42.8 °F 100% 30.62 in 10.0 mi WNW 9.2 mph - N/A   Overcast
4:35 AM 42.8 °F 36.2 °F 42.8 °F 100% 30.62 in 10.0 mi West 12.7 mph - N/A   Overcast
4:55 AM 42.8 °F 36.6 °F 42.8 °F 100% 30.61 in 10.0 mi West 11.5 mph - N/A   Overcast
5:15 AM 42.8 °F 37.5 °F 42.8 °F 100% 30.61 in 10.0 mi NW 9.2 mph - N/A   Light Drizzle
5:35 AM 42.8 °F 37.0 °F 41.0 °F 93% 30.61 in 10.0 mi NW 10.4 mph - N/A   Light Drizzle
5:55 AM 42.8 °F 39.3 °F 41.0 °F 93% 30.62 in 10.0 mi NNW 5.8 mph - N/A   Overcast
6:15 AM 41.0 °F 38.0 °F 41.0 °F 100% 30.62 in 10.0 mi North 4.6 mph - N/A   Overcast
6:35 AM 42.8 °F 37.0 °F 41.0 °F 93% 30.62 in 10.0 mi NW 10.4 mph - N/A   Overcast
6:55 AM 42.8 °F 37.0 °F 41.0 °F 93% 30.63 in 10.0 mi NW 10.4 mph - N/A   Overcast
7:15 AM 42.8 °F 36.6 °F 41.0 °F 93% 30.62 in 10.0 mi NW 11.5 mph - N/A   Mostly Cloudy
7:35 AM 41.0 °F 33.5 °F 41.0 °F 100% 30.62 in 10.0 mi NNW 13.8 mph - N/A   Mostly Cloudy
7:55 AM 41.0 °F 33.9 °F 41.0 °F 100% 30.62 in 10.0 mi NNW 12.7 mph - N/A   Scattered Clouds
8:15 AM 42.8 °F 37.5 °F 42.8 °F 100% 30.63 in 10.0 mi NNW 9.2 mph - N/A   Mostly Cloudy
8:35 AM 42.8 °F 39.3 °F 41.0 °F 93% 30.63 in 10.0 mi North 5.8 mph - N/A   Overcast
8:55 AM 42.8 °F 39.3 °F 41.0 °F 93% 30.63 in 10.0 mi North 5.8 mph - N/A   Overcast
9:15 AM 42.8 °F 39.3 °F 41.0 °F 93% 30.63 in 10.0 mi North 5.8 mph - N/A   Overcast
9:35 AM 42.8 °F 40.1 °F 42.8 °F 100% 30.63 in 10.0 mi North 4.6 mph - N/A   Overcast
9:55 AM 42.8 °F 37.5 °F 42.8 °F 100% 30.63 in 10.0 mi NNW 9.2 mph - N/A   Overcast
10:15 AM 44.6 °F 41.4 °F 42.8 °F 93% 30.63 in 10.0 mi NNE 5.8 mph - N/A   Overcast
10:34 AM 44.6 °F 42.2 °F 44.6 °F 100% 30.64 in 10.0 mi NNE 4.6 mph - N/A   Overcast
11:15 AM 46.4 °F 44.3 °F 46.4 °F 100% 30.63 in 10.0 mi NE 4.6 mph - N/A   Mostly Cloudy
11:35 AM 48.2 °F - 46.4 °F 93% 30.64 in 10.0 mi North 6.9 mph - N/A   Overcast
11:55 AM 48.2 °F - 46.4 °F 93% 30.63 in 10.0 mi North 5.8 mph - N/A   Mostly Cloudy
12:14 PM 50.0 °F - 48.2 °F 94% 30.63 in 10.0 mi North 5.8 mph - N/A   Mostly Cloudy
12:34 PM 50.0 °F - 50.0 °F 100% 30.63 in 10.0 mi North - - N/A Thunderstorm Thunderstorm
12:54 PM 50.0 °F - 50.0 °F 100% 30.63 in 10.0 mi North - - N/A Thunderstorm Thunderstorm
1:15 PM 46.4 °F 45.2 °F 44.6 °F 93% 30.63 in 10.0 mi ENE 3.5 mph - N/A Thunderstorm Unknown
1:35 PM 44.6 °F 42.2 °F 42.8 °F 93% 30.62 in 0.2 mi North 4.6 mph - 0.01 in Rain , Thunderstorm Light Thunderstorms and Rain
1:54 PM 42.8 °F - 42.8 °F 100% 30.62 in 0.2 mi Calm Calm - 0.04 in Rain , Thunderstorm Light Thunderstorms and Rain
2:15 PM 42.8 °F 40.1 °F 42.8 °F 100% 30.63 in 0.2 mi North 4.6 mph - N/A Fog , Thunderstorm Unknown
2:35 PM 41.0 °F 36.4 °F 39.2 °F 93% 30.64 in 0.2 mi ESE 6.9 mph 20.7 mph 0.12 in Rain , Thunderstorm Heavy Thunderstorms and Rain
2:55 PM 37.4 °F 32.8 °F 37.4 °F 100% 30.64 in 0.8 mi West 5.8 mph 13.8 mph 0.40 in Rain Heavy Rain
3:14 PM 41.0 °F 39.0 °F 39.2 °F 93% 30.64 in 10.0 mi North 3.5 mph - N/A Rain Rain
3:35 PM 41.0 °F 38.0 °F 41.0 °F 100% 30.64 in 0.2 mi North 4.6 mph - N/A Fog Fog
3:55 PM 41.0 °F 34.7 °F 41.0 °F 100% 30.64 in 0.2 mi NW 10.4 mph - N/A Fog Fog
4:15 PM 41.0 °F 34.7 °F 41.0 °F 100% 30.63 in 0.2 mi NW 10.4 mph - N/A Fog Fog
4:35 PM 41.0 °F 34.3 °F 41.0 °F 100% 30.62 in 0.2 mi NNW 11.5 mph - N/A Fog Fog
4:54 PM 41.0 °F 33.5 °F 41.0 °F 100% 30.62 in 0.2 mi NNW 13.8 mph - N/A Fog Fog
5:15 PM 42.8 °F 34.8 °F 42.8 °F 100% 30.62 in 0.2 mi NNW 17.3 mph - N/A Fog Fog
5:35 PM 42.8 °F 35.1 °F 41.0 °F 93% 30.61 in 0.2 mi NW 16.1 mph - N/A Fog Fog
5:55 PM 42.8 °F 34.5 °F 42.8 °F 100% 30.60 in 10.0 mi NW 18.4 mph - N/A   Overcast
6:15 PM 44.6 °F 37.2 °F 42.8 °F 93% 30.60 in 10.0 mi NW 17.3 mph 25.3 mph N/A   Overcast
6:35 PM 42.8 °F 34.3 °F 42.8 °F 100% 30.60 in 10.0 mi NNW 19.6 mph 27.6 mph N/A   Overcast
6:54 PM 44.6 °F 35.5 °F 42.8 °F 93% 30.60 in 10.0 mi NNW 25.3 mph 28.8 mph N/A   Overcast
7:15 PM 42.8 °F 33.1 °F 42.8 °F 100% 30.60 in 10.0 mi NW 25.3 mph 33.4 mph N/A   Mostly Cloudy
7:35 PM 42.8 °F 33.1 °F 42.8 °F 100% 30.61 in 10.0 mi NW 25.3 mph 29.9 mph N/A Thunderstorm Thunderstorm
7:55 PM 41.0 °F 30.5 °F 41.0 °F 100% 30.61 in 10.0 mi NNW 26.5 mph 32.2 mph N/A Thunderstorm Mostly Cloudy
8:14 PM 41.0 °F 30.9 °F 41.0 °F 100% 30.61 in 10.0 mi NNW 24.2 mph 32.2 mph N/A Thunderstorm Mostly Cloudy
8:35 PM 41.0 °F 33.5 °F 39.2 °F 93% 30.63 in 4.0 mi NNW 13.8 mph 25.3 mph N/A Thunderstorm Mostly Cloudy
8:55 PM 41.0 °F 31.1 °F 41.0 °F 100% 30.64 in 0.5 mi NW 23.0 mph 28.8 mph N/A Fog Fog
9:14 PM 39.2 °F 29.3 °F 37.4 °F 93% 30.64 in 0.2 mi NNW 20.7 mph 35.7 mph N/A Fog Fog
9:35 PM 37.4 °F 31.4 °F 37.4 °F 100% 30.66 in 0.2 mi North 8.1 mph 20.7 mph N/A Fog Fog
9:55 PM 41.0 °F 34.7 °F 39.2 °F 93% 30.66 in 10.0 mi NNW 10.4 mph - N/A Rain Rain
10:14 PM 41.0 °F 33.9 °F 41.0 °F 100% 30.66 in 10.0 mi NW 12.7 mph - N/A   Mostly Cloudy
10:35 PM 39.2 °F 30.5 °F 37.4 °F 93% 30.64 in 10.0 mi NW 16.1 mph - N/A   Scattered Clouds
10:55 PM 39.2 °F 30.8 °F 37.4 °F 93% 30.65 in 10.0 mi NW 15.0 mph 24.2 mph N/A   Mostly Cloudy
11:15 PM 37.4 °F 29.3 °F 37.4 °F 100% 30.65 in 10.0 mi NNW 12.7 mph - N/A   Scattered Clouds
11:34 PM 37.4 °F 28.9 °F 37.4 °F 100% 30.64 in 10.0 mi NW 13.8 mph - N/A   Clear
11:55 PM 37.4 °F 28.2 °F 37.4 °F 100% 30.63 in 10.0 mi NW 16.1 mph - N/A   Clear